GW4987 Weather Reports


time (UTC)temp
C
wind
direction
speed
KPH
gust
KPH
rain 1hr
cm
rain 24hr
cm
rain mn
cm
humidity
%
barometer
mb
20260902083504 20 199 12.9 17.7 0.00 0.00 0.00 64 1022.4
20260902081504 20 199 12.9 17.7 0.00 0.00 0.00 64 1022.4
20260902081003 20 199 12.9 17.7 0.00 0.00 0.00 64 1022.6
20260902075004 20 199 12.9 17.7 0.00 0.00 0.00 64 1022.4
20260902074504 20 199 12.9 17.7 0.00 0.00 0.00 64 1022.5
20260902074004 20 199 12.9 17.7 0.00 0.00 0.00 64 1022.5
20260902041504 21 180 6.4 6.4 0.00 0.00 0.00 60 1022.5
20260902041004 21 180 6.4 6.4 0.00 0.00 0.00 60 1022.3
20260902040504 21 180 6.4 6.4 0.00 0.00 0.00 60 1022.5
20260902040004 21 180 6.4 6.4 0.00 0.00 0.00 60 1022.5
20260902035504 21 180 6.4 6.4 0.00 0.00 0.00 60 1022.3
20260902035004 21 180 6.4 6.4 0.00 0.00 0.00 60 1022.4
20260902034503 21 180 6.4 6.4 0.00 0.00 0.00 60 1022.4
20260902034003 21 180 6.4 6.4 0.00 0.00 0.00 60 1022.3
20260902033504 21 180 6.4 6.4 0.00 0.00 0.00 60 1022.3
20260902033003 21 180 6.4 6.4 0.00 0.00 0.00 60 1022.3
20260902032503 21 180 6.4 6.4 0.00 0.00 0.00 60 1021.9
20260902032004 21 180 6.4 6.4 0.00 0.00 0.00 60 1021.9
20260902030004 22 213 17.7 19.3 0.00 0.00 0.00 54 1021.8
20260902025503 22 213 17.7 19.3 0.00 0.00 0.00 54 1022.0
20260902025003 22 213 17.7 19.3 0.00 0.00 0.00 54 1021.6
20260902024504 22 213 17.7 19.3 0.00 0.00 0.00 54 1021.6
20260902024003 22 213 17.7 19.3 0.00 0.00 0.00 54 1021.5
20260902023503 22 213 17.7 19.3 0.00 0.00 0.00 54 1021.7
20260902023004 22 213 17.7 19.3 0.00 0.00 0.00 54 1021.6
20260902022503 22 213 17.7 19.3 0.00 0.00 0.00 54 1021.6
20260902022003 22 213 17.7 19.3 0.00 0.00 0.00 54 1021.6
20260902021504 22 213 17.7 19.3 0.00 0.00 0.00 54 1021.8
20260902021003 22 213 17.7 19.3 0.00 0.00 0.00 54 1021.7
20260902020503 22 213 17.7 19.3 0.00 0.00 0.00 54 1021.7
20260902020004 22 190 22.5 24.1 0.00 0.00 0.00 53 1021.5
20260902015504 22 190 22.5 24.1 0.00 0.00 0.00 53 1021.3
20260902015004 22 203 17.7 17.7 0.00 0.00 0.00 53 1021.5
20260902014504 22 214 16.1 17.7 0.00 0.00 0.00 52 1021.4
20260902014004 22 210 11.3 25.7 0.00 0.00 0.00 52 1021.4
20260902013504 23 207 19.3 22.5 0.00 0.00 0.00 50 1021.4
20260902013004 23 207 19.3 22.5 0.00 0.00 0.00 50 1021.5
20260902012504 23 234 12.9 17.7 0.00 0.00 0.00 47 1021.5
20260902012004 23 234 12.9 17.7 0.00 0.00 0.00 47 1021.4
20260902011504 24 202 19.3 25.7 0.00 0.00 0.00 45 1021.6
20260902011003 24 202 19.3 25.7 0.00 0.00 0.00 45 1021.6
20260902010504 24 202 19.3 25.7 0.00 0.00 0.00 45 1021.7
20260902010004 24 205 11.3 20.9 0.00 0.00 0.00 46 1021.6
20260902005503 24 215 14.5 25.7 0.00 0.00 0.00 46 1021.7
20260902005003 24 220 24.1 32.2 0.00 0.00 0.00 45 1021.6
20260902004504 24 181 20.9 24.1 0.00 0.00 0.00 44 1021.6
20260902004003 24 205 24.1 25.7 0.00 0.00 0.00 44 1021.6
20260902003503 25 194 17.7 30.6 0.00 0.00 0.00 42 1021.5
20260902003004 25 212 9.7 12.9 0.00 0.00 0.00 44 1021.7
20260902002504 25 210 16.1 27.4 0.00 0.00 0.00 44 1021.7
20260902002003 25 205 12.9 20.9 0.00 0.00 0.00 45 1021.7
20260902001504 25 212 14.5 29.0 0.00 0.00 0.00 46 1021.8
20260902001004 25 215 12.9 12.9 0.00 0.00 0.00 48 1021.7
20260902000504 25 237 9.7 11.3 0.00 0.00 0.00 46 1021.7
20260902000004 25 178 12.9 27.4 0.00 0.00 0.00 46 1021.6
20260901235503 25 254 12.9 24.1 0.00 0.00 0.00 44 1021.7
20260901235004 25 216 4.8 14.5 0.00 0.00 0.00 45 1021.6
20260901234504 25 200 24.1 24.1 0.00 0.00 0.00 44 1021.8
20260901234003 26 221 16.1 17.7 0.00 0.00 0.00 43 1021.7
20260901233503 26 221 16.1 17.7 0.00 0.00 0.00 43 1021.7
20260901233003 25 219 17.7 27.4 0.00 0.00 0.00 46 1022.0
20260901232504 25 222 19.3 32.2 0.00 0.00 0.00 45 1022.0
20260901232004 25 214 24.1 33.8 0.00 0.00 0.00 43 1021.8
20260901231504 25 229 19.3 32.2 0.00 0.00 0.00 43 1021.7
20260901231004 25 196 12.9 27.4 0.00 0.00 0.00 43 1021.8
20260901230504 25 228 22.5 38.6 0.00 0.00 0.00 41 1021.9
20260901230004 26 260 9.7 16.1 0.00 0.00 0.00 39 1021.9
20260901224004 26 283 24.1 35.4 0.00 0.00 0.00 43 1021.9
20260901223504 25 214 6.4 19.3 0.00 0.00 0.00 44 1022.1
20260901223004 25 254 20.9 27.4 0.00 0.00 0.00 43 1022.0
20260901221003 26 188 19.3 22.5 0.00 0.00 0.00 40 1021.9
20260901220503 26 220 20.9 20.9 0.00 0.00 0.00 40 1022.0
20260901220004 26 213 9.7 17.7 0.00 0.00 0.00 39 1022.1
20260901214004 26 190 16.1 16.1 0.00 0.00 0.00 43 1022.1
20260901213504 26 190 16.1 16.1 0.00 0.00 0.00 43 1022.3
20260901213004 26 149 24.1 40.2 0.00 0.00 0.00 43 1022.3
20260901211003 24 157 6.4 8.0 0.00 0.00 0.00 54 1022.4
20260901210503 24 157 6.4 8.0 0.00 0.00 0.00 54 1022.3
20260901210004 24 157 6.4 8.0 0.00 0.00 0.00 54 1022.6
20260901204004 24 227 14.5 20.9 0.00 0.00 0.00 46 1022.8
20260901203504 24 227 14.5 20.9 0.00 0.00 0.00 46 1022.7
20260901203004 26 154 17.7 24.1 0.00 0.00 0.00 48 1022.6
20260901202503 26 154 17.7 24.1 0.00 0.00 0.00 48 1022.6
20260901202003 26 154 17.7 24.1 0.00 0.00 0.00 48 1022.7
20260901201504 26 154 17.7 24.1 0.00 0.00 0.00 48 1022.7
20260901195503 25 135 27.4 37.0 0.00 0.00 0.00 51 1023.0
20260901195003 25 135 27.4 37.0 0.00 0.00 0.00 51 1023.0
20260901194504 25 135 27.4 37.0 0.00 0.00 0.00 51 1022.8
20260901194004 25 135 27.4 37.0 0.00 0.00 0.00 51 1022.9
20260901193504 25 135 27.4 37.0 0.00 0.00 0.00 51 1022.9
20260901193004 25 135 27.4 37.0 0.00 0.00 0.00 51 1023.0
20260901192503 25 135 27.4 37.0 0.00 0.00 0.00 51 1023.1
20260901192003 25 135 27.4 37.0 0.00 0.00 0.00 51 1023.1
20260901191505 24 180 19.3 25.7 0.00 0.00 0.00 52 1023.0
20260901191004 24 180 19.3 25.7 0.00 0.00 0.00 52 1023.4
20260901190504 25 180 11.3 14.5 0.00 0.00 0.00 50 1023.4
20260901190004 25 180 11.3 14.5 0.00 0.00 0.00 50 1023.4
20260901185503 23 192 20.9 27.4 0.00 0.00 0.00 53 1023.7
20260901185004 24 196 19.3 25.7 0.00 0.00 0.00 54 1023.5
20260901184504 25 158 11.3 19.3 0.00 0.00 0.00 53 1023.6
20260901184003 24 147 25.7 27.4 0.00 0.00 0.00 54 1023.4
20260901183504 25 150 3.2 11.3 0.00 0.00 0.00 51 1023.5
20260901183004 25 218 9.7 20.9 0.00 0.00 0.00 52 1023.4
20260901180004 23 180 11.3 12.9 0.00 0.00 0.00 57 1023.8
20260901175503 23 180 11.3 12.9 0.00 0.00 0.00 57 1023.8
20260901175003 23 180 11.3 12.9 0.00 0.00 0.00 57 1023.8
20260901174504 23 180 11.3 12.9 0.00 0.00 0.00 57 1023.6
20260901174004 23 180 11.3 12.9 0.00 0.00 0.00 57 1023.5
20260901173504 23 180 11.3 12.9 0.00 0.00 0.00 57 1023.5
20260901173004 23 180 11.3 12.9 0.00 0.00 0.00 57 1023.4
20260901170003 23 210 8.0 8.0 0.00 0.00 0.00 57 1023.4
20260901165503 23 185 9.7 11.3 0.00 0.00 0.00 56 1023.4
20260901165004 22 207 9.7 17.7 0.00 0.00 0.00 61 1023.6
20260901164504 22 202 14.5 17.7 0.00 0.00 0.00 60 1023.4
20260901164004 22 202 14.5 17.7 0.00 0.00 0.00 60 1023.2
20260901163504 22 202 14.5 17.7 0.00 0.00 0.00 60 1023.1
20260901163003 22 202 14.5 17.7 0.00 0.00 0.00 60 1023.1
20260901162503 23 137 4.8 4.8 0.00 0.00 0.00 60 1023.2
20260901162003 23 137 4.8 4.8 0.00 0.00 0.00 60 1023.4
20260901160004 21 122 4.8 6.4 0.00 0.00 0.00 67 1022.9
20260901155504 21 122 4.8 6.4 0.00 0.00 0.00 67 1023.1
20260901155005 21 122 4.8 6.4 0.00 0.00 0.00 67 1023.0
20260901153503 21 122 4.8 6.4 0.00 0.00 0.00 67 1023.0
20260901153004 21 122 4.8 6.4 0.00 0.00 0.00 67 1023.0
20260901152504 21 122 4.8 6.4 0.00 0.00 0.00 67 1022.9
20260901152003 21 122 4.8 6.4 0.00 0.00 0.00 67 1022.9
20260901151503 21 122 4.8 6.4 0.00 0.00 0.00 67 1022.9
20260901151004 21 220 6.4 6.4 0.00 0.00 0.00 65 1023.0
20260901150504 21 118 4.8 8.0 0.00 0.00 0.00 65 1022.9
20260901150004 21 133 9.7 9.7 0.00 0.00 0.00 64 1023.0
20260901145504 21 110 8.0 8.0 0.00 0.00 0.00 62 1023.0
20260901145004 21 110 8.0 8.0 0.00 0.00 0.00 62 1023.0
20260901144504 20 86 3.2 4.8 0.00 0.00 0.00 62 1022.9
20260901144004 20 130 6.4 8.0 0.00 0.00 0.00 63 1023.0
20260901143503 20 130 6.4 8.0 0.00 0.00 0.00 63 1023.0
20260901143003 20 118 4.8 6.4 0.00 0.00 0.00 62 1022.9
20260901142504 20 70 3.2 4.8 0.00 0.00 0.00 63 1022.7
20260901142004 20 185 6.4 6.4 0.00 0.00 0.00 62 1022.7
20260901141504 19 136 3.2 9.7 0.00 0.00 0.00 63 1022.8
20260901141004 19 145 3.2 4.8 0.00 0.00 0.00 62 1022.7
20260901140503 19 146 3.2 8.0 0.00 0.00 0.00 63 1022.8
20260901140004 18 140 4.8 8.0 0.00 0.00 0.00 63 1022.9
20260901135503 18 130 6.4 8.0 0.00 0.00 0.00 64 1022.9
20260901135003 18 126 4.8 8.0 0.00 0.00 0.00 64 1022.7
20260901134503 17 181 6.4 6.4 0.00 0.00 0.00 69 1022.9
20260901134004 17 181 6.4 6.4 0.00 0.00 0.00 69 1022.9
20260901133503 17 181 6.4 6.4 0.00 0.00 0.00 69 1022.6
20260901133004 17 181 6.4 6.4 0.00 0.00 0.00 69 1022.7
20260901132504 17 181 6.4 6.4 0.00 0.00 0.00 69 1022.8
20260901132004 17 181 6.4 6.4 0.00 0.00 0.00 69 1022.6
20260901131504 17 181 6.4 6.4 0.00 0.00 0.00 69 1022.8
20260901131004 17 181 6.4 6.4 0.00 0.00 0.00 69 1022.8
20260901130504 17 181 6.4 6.4 0.00 0.00 0.00 69 1022.7